星链-3987 (STARLINK-3987 )

导读 | 豆包AI

STARLINK-3987是美国太空探索技术公司(SpaceX)星链(Starlink)卫星互联网项目的成员,于2022年5月18日发射升空。它属于星链计划低轨卫星星座组网卫星,旨在为全球用户提供高速低延迟的互联网接入服务,进一步拓展了星链星座的覆盖范围与服务能力。

Basic Information
目录编号:
52699
目录名称:
STARLINK-3987
国际标识:
2022-053AV
轨道中心:
EARTH
卫星名称:
星链-3987
卫星全名:
星链-3987 (STARLINK-3987 )
卫星状态:
在轨 (已飞行1443 天)
发射日期:
2022-05-18 UTC
国别 :
美国 (US)
星等 :
--
Orbit Information
数据来源 国际轨道数据 AOE轨道数据
星历时间 2026-04-30T21:42:55+0800
9小时前
查看轨道信息
2026-04-30T09:00:00+0800
22小时前
查看轨道信息
半长轴 6917.892km 6917.894km
偏心率 0.0001299 0.0000865
轨道倾角 53.218° 53.214°
近地点辐角 106.359° 53.868°
升交点赤经 266.245° 268.626°
平近点角 253.754° 306.888°
近地点 538.856km 539.158km
远地点 540.654km 540.356km
周期 95.438分钟 95.438分钟
每日圈数 15.088363 15.088358
Detailed Information
固有亮度:
5
最大亮度:
2.5
卫星平台:
Starlink v1.5
覆盖范围:
全球
运营商:
太空探索技术公司
运营商所在国:
美国
制造商(研发单位):
太空探索技术公司
制造商所在国:
美国
使用方式:
暂无
Satellite Introduction
星链(Starlink)计划是由太空探索技术公司(SpaceX)提出的一个巨型低轨卫星互联网星座项目,计划在2019年至2024年间在太空搭建由约1.2万颗卫星组成的“星链”网络,其中1584颗将部署在地球上空550千米处的近地轨道,并从2020年开始工作。该卫星仍在工作。
2D Orbit Map
3D Orbit Map
Orbit Altitude Analysis Chart
Orbit Inclination Analysis Chart
Orbit Comprehensive Analysis Chart
View Comprehensive Chart